Location: Fontevrault
(47.1823°N, 0.0493°E)
Time: 03:47:37
(UTC+00:00)

Uosat 12 SS-18 rocket - Pass Details

Date: 28 October 2021
Orbit: 579 x 1405 km, 64.6° (Epoch: 01 December)

Event Time Altitude Azimuth Distance (km) Brightness Sun altitude
Rises 17:11:24 0° 270° (W) 3,232 9.6 -4.4°
Reaches altitude 10° 17:14:06 10° 285° (WNW) 2,432 8.2 -4.9°
Maximum altitude 17:18:37 24° 338° (NNW) 1,858 6.6 -5.6°
Drops below altitude 10° 17:23:55 10° 30° (NNE) 2,902 7.1 -6.5°
Enters shadow 17:27:15 - 43° (NE) 3,939 7.7 -7.0°
